TimeEST,TemperatureF,Dew PointF,Humidity,Sea Level PressureIn,VisibilityMPH,Wind Direction,Wind SpeedMPH,Gust SpeedMPH,PrecipitationIn,Events,Conditions,WindDirDegrees,DateUTC
12:54 AM,30.0,28.0,92,30.27,4.0,Calm,Calm,-,N/A,,Overcast,0,2013-02-26 05:54:00
1:06 AM,30.2,28.4,93,30.25,4.0,Calm,Calm,-,N/A,,Overcast,0,2013-02-26 06:06:00
1:52 AM,30.2,28.4,93,30.24,4.0,Calm,Calm,-,N/A,,Overcast,0,2013-02-26 06:52:00
1:54 AM,30.0,28.0,92,30.28,4.0,Calm,Calm,-,N/A,,Overcast,0,2013-02-26 06:54:00
2:54 AM,30.0,28.0,92,30.29,3.0,Calm,Calm,-,N/A,,Overcast,0,2013-02-26 07:54:00
3:54 AM,30.0,28.0,92,30.30,3.0,Calm,Calm,-,0.00,,Overcast,0,2013-02-26 08:54:00
4:22 AM,30.2,26.6,86,30.26,2.5,Calm,Calm,-,N/A,,Overcast,0,2013-02-26 09:22:00
4:33 AM,30.2,26.6,86,30.27,3.0,Calm,Calm,-,N/A,,Overcast,0,2013-02-26 09:33:00
4:54 AM,30.0,28.0,92,30.31,3.0,Calm,Calm,-,N/A,,Overcast,0,2013-02-26 09:54:00
5:54 AM,30.0,28.0,92,30.32,4.0,Calm,Calm,-,N/A,,Overcast,0,2013-02-26 10:54:00
6:15 AM,30.2,28.4,93,30.29,3.0,Calm,Calm,-,N/A,,Overcast,0,2013-02-26 11:15:00
6:50 AM,28.4,26.6,93,30.29,2.0,Calm,Calm,-,N/A,,Overcast,0,2013-02-26 11:50:00
6:54 AM,28.9,27.0,92,30.32,2.0,Calm,Calm,-,N/A,,Overcast,0,2013-02-26 11:54:00
7:22 AM,30.2,28.4,93,30.30,3.0,Calm,Calm,-,N/A,,Overcast,0,2013-02-26 12:22:00
7:54 AM,30.0,28.9,96,30.33,4.0,Calm,Calm,-,N/A,,Overcast,0,2013-02-26 12:54:00
8:54 AM,32.0,28.9,88,30.35,7.0,Calm,Calm,-,N/A,,Overcast,0,2013-02-26 13:54:00
9:54 AM,34.0,30.0,85,30.35,10.0,Calm,Calm,-,N/A,,Overcast,0,2013-02-26 14:54:00
10:54 AM,37.9,28.0,68,30.32,10.0,Calm,Calm,-,N/A,,Overcast,0,2013-02-26 15:54:00
11:23 AM,37.4,26.6,65,30.29,10.0,Calm,Calm,-,N/A,,Overcast,0,2013-02-26 16:23:00
11:32 AM,37.4,26.6,65,30.29,10.0,Calm,Calm,-,N/A,,Mostly Cloudy,0,2013-02-26 16:32:00
11:54 AM,39.9,27.0,60,30.31,10.0,Calm,Calm,-,N/A,,Mostly Cloudy,0,2013-02-26 16:54:00
12:54 PM,39.9,24.1,53,30.29,10.0,Calm,Calm,-,N/A,,Overcast,0,2013-02-26 17:54:00
1:54 PM,39.0,25.0,57,30.29,10.0,South,4.6,-,N/A,,Overcast,180,2013-02-26 18:54:00
2:54 PM,39.0,26.1,60,30.27,10.0,South,4.6,-,N/A,,Overcast,170,2013-02-26 19:54:00
3:54 PM,39.0,25.0,57,30.26,10.0,South,5.8,-,N/A,,Overcast,180,2013-02-26 20:54:00
4:54 PM,37.0,27.0,67,30.25,10.0,SSE,3.5,-,N/A,,Overcast,160,2013-02-26 21:54:00
5:54 PM,37.9,26.1,62,30.25,10.0,SSE,3.5,-,N/A,,Overcast,160,2013-02-26 22:54:00
6:54 PM,37.0,27.0,67,30.24,10.0,SSE,4.6,-,N/A,,Overcast,150,2013-02-26 23:54:00
7:54 PM,36.0,27.0,70,30.25,10.0,South,5.8,-,N/A,,Overcast,170,2013-02-27 00:54:00
8:54 PM,37.0,26.1,65,30.25,10.0,South,5.8,-,N/A,,Overcast,170,2013-02-27 01:54:00
9:54 PM,36.0,26.1,67,30.21,10.0,SSE,5.8,-,N/A,,Overcast,150,2013-02-27 02:54:00
10:54 PM,36.0,25.0,64,30.19,10.0,South,5.8,-,N/A,,Scattered Clouds,180,2013-02-27 03:54:00
11:54 PM,35.1,25.0,67,30.16,10.0,SE,6.9,-,N/A,,Scattered Clouds,140,2013-02-27 04:54:00